Address 0xdb239f642c19fe7e4d429c1d5eb50e53eeddccc8

 
Txn Hash Method
Block
From
To
Value [Txn Fee]
0x4cb1bfeb096bacf9c235ee23bffe342739b2382b6c59ae7f6a02200ad40ea395Execute Meta Tra...207170042021-10-28 21:20:2012 secs ago0xdb239f642c19fe7e4d429c1d5eb50e53eeddccc8OUT 0xa102072a4c07f06ec3b4900fdc4c7b80b6c574290 MATIC0.004448631
0x650976b4a8e818931a6cd21d3449e8d3d784fa762ba1c0236fc4c00d95c0f0ebExecute Meta Tra...207166212021-10-28 21:06:4413 mins ago0xdb239f642c19fe7e4d429c1d5eb50e53eeddccc8OUT 0x89aac1f5ccdd54dd8a09e5c858f19a665e4fa32b0 MATIC0.00642501
0x5803282fecb923edfd1ea7e4cc3c7feee59cd0f47179716af01d3a283bc3198aExecute Meta Tra...207162832021-10-28 20:54:5625 mins ago0xdb239f642c19fe7e4d429c1d5eb50e53eeddccc8OUT 0xbf79ce2fbd819e5abc2327563d02a200255b7cb30 MATIC0.001177992
0x39bdfdee5b08d4cd5dab7914e9842b0925c9ae1c09d7529e95697e71e8b0bd32Execute Meta Tra...207160212021-10-28 20:40:5439 mins ago0xdb239f642c19fe7e4d429c1d5eb50e53eeddccc8OUT 0xa5f1ea7df861952863df2e8d1312f7305dabf2150 MATIC0.00305094
0x2ce2e24ff1ae82e4f6df97fe044d132c87128d6c6328459310db9a3df916bb38Exec Transaction207157562021-10-28 20:31:4848 mins ago0xdb239f642c19fe7e4d429c1d5eb50e53eeddccc8OUT 0xbceee385bcdc23162bb9af5d465253a78eac27fa0 MATIC0.01206174
0xe7c714d78972732e8303b18a7984d859e45698a22e35c333bb02e0e3e3965841Execute Meta Tra...207156262021-10-28 20:24:3056 mins ago0xdb239f642c19fe7e4d429c1d5eb50e53eeddccc8OUT 0x7ceb23fd6bc0add59e62ac25578270cff1b9f6190 MATIC0.002187339
0x21a9f7acd7a0e6ece00ff64565d095b03b905ac088bbaed9f061464836c9037dExecute Meta Tra...207153212021-10-28 20:12:341 hr 7 mins ago0xdb239f642c19fe7e4d429c1d5eb50e53eeddccc8OUT 0x89aac1f5ccdd54dd8a09e5c858f19a665e4fa32b0 MATIC0.00642429
0x00e81c516ef4ac8a8ce8b95991d4d7cb391f33079e78f43a4c6e65bd027dc09fForward Meta Tx207149252021-10-28 19:58:211 hr 22 mins ago0xdb239f642c19fe7e4d429c1d5eb50e53eeddccc8OUT 0x0babda04f62c549a09ef3313fe187f29c099ff3c0 MATIC0.00275115
0x0b9cc837682bd3bee07cec1722b923aec7b1beed38dab8a44a17af626bf444a6Execute Meta Tra...207145612021-10-28 19:44:211 hr 36 mins ago0xdb239f642c19fe7e4d429c1d5eb50e53eeddccc8OUT 0x89aac1f5ccdd54dd8a09e5c858f19a665e4fa32b0 MATIC0.007710011999
0x613996c6c02c7518bb0a4df0823393e8787372211feda53fcbc36e4bcf664ab3Execute Meta Tra...207142052021-10-28 19:31:361 hr 48 mins ago0xdb239f642c19fe7e4d429c1d5eb50e53eeddccc8OUT 0xbf79ce2fbd819e5abc2327563d02a200255b7cb30 MATIC0.002217105
0x7d5bbb836fdafb3f0c3a345a73ce3996ccbfc808499938dcc7022f27f52166f6Execute Meta Tra...207138202021-10-28 19:15:042 hrs 5 mins ago0xdb239f642c19fe7e4d429c1d5eb50e53eeddccc8OUT 0xbf79ce2fbd819e5abc2327563d02a200255b7cb30 MATIC0.002217105
0xdc75c7648b893dd19d2b95264b8f95593fc0bf3543fc160837837ddffa547728Forward Meta Tx207133722021-10-28 18:58:422 hrs 21 mins ago0xdb239f642c19fe7e4d429c1d5eb50e53eeddccc8OUT 0x0babda04f62c549a09ef3313fe187f29c099ff3c0 MATIC0.006084350009
0x2104fa75c902b2df8527b4dfdbd9de29e0236779f17df01d02b81d2b3546cdd1Forward Meta Tx207130392021-10-28 18:45:362 hrs 34 mins ago0xdb239f642c19fe7e4d429c1d5eb50e53eeddccc8OUT 0x0babda04f62c549a09ef3313fe187f29c099ff3c0 MATIC1.317918739
0x58eb2c4a57dbe334dca8069cea6347439e68885f2a65c49e2e3c291832bd5b8eExecute Meta Tra...207127822021-10-28 18:33:282 hrs 47 mins ago0xdb239f642c19fe7e4d429c1d5eb50e53eeddccc8OUT 0x89aac1f5ccdd54dd8a09e5c858f19a665e4fa32b0 MATIC0.00642501
0xf1150e0ea60151c310ba8483a141ccc1adde67813f904393cd8f296792f97d47Execute Meta Tra...207121252021-10-28 18:06:343 hrs 13 mins ago0xdb239f642c19fe7e4d429c1d5eb50e53eeddccc8OUT 0xa102072a4c07f06ec3b4900fdc4c7b80b6c574290 MATIC0.00673041
0x95cf6851048e258b970ae49cd0f6b7eaa69075880358be1825b53a96639975f2Execute Meta Tra...207112342021-10-28 17:31:273 hrs 49 mins ago0xdb239f642c19fe7e4d429c1d5eb50e53eeddccc8OUT 0x89aac1f5ccdd54dd8a09e5c858f19a665e4fa32b0 MATIC0.0079670124
0xb79707ae4786d6878b0e6307e95ca58219d33668f1effaf13e62eaccf0841bc4Execute Meta Tra...207108732021-10-28 17:19:014 hrs 1 min ago0xdb239f642c19fe7e4d429c1d5eb50e53eeddccc8OUT 0x7adbced399630dd11a97f2e2dc206911167071ae0 MATIC0.005580682
0x04ad9a90c496adc5559dc156ddcd6a0d1e4493fbd4951cfb31c290d2fc18e157Execute Meta Tra...207105272021-10-28 17:07:054 hrs 13 mins ago0xdb239f642c19fe7e4d429c1d5eb50e53eeddccc8OUT 0xeda1f66f5c765ac16b4333c53f3f83f781d01c8b0 MATIC0.03281232
0x4bc6e86e8e1edb290463b038ae7e14ebf40241ca6c39ecdda373f431b3cb5556Execute Meta Tra...207101962021-10-28 16:55:434 hrs 24 mins ago0xdb239f642c19fe7e4d429c1d5eb50e53eeddccc8OUT 0xa102072a4c07f06ec3b4900fdc4c7b80b6c574290 MATIC0.0103701675
0x1c8e380ed9b006ce729c2b03dad0d224f5a7feee812c9a43e5c5e643fb2a993cExecute Meta Tra...207098442021-10-28 16:42:134 hrs 38 mins ago0xdb239f642c19fe7e4d429c1d5eb50e53eeddccc8OUT 0xbf79ce2fbd819e5abc2327563d02a200255b7cb30 MATIC0.002217645
0x170f9e46eed447d67ddf61a2572ccaa7387adc40ebe3cc2e79ceb93c6458f045Execute Meta Tra...207091762021-10-28 16:17:515 hrs 2 mins ago0xdb239f642c19fe7e4d429c1d5eb50e53eeddccc8OUT 0x89aac1f5ccdd54dd8a09e5c858f19a665e4fa32b0 MATIC0.013254267654
0x2b49850fb3d472b83a9ba49703b7ff2d1138fef42040dadec65b867743eec067Execute Meta Tra...207088412021-10-28 16:06:215 hrs 14 mins ago0xdb239f642c19fe7e4d429c1d5eb50e53eeddccc8OUT 0x89aac1f5ccdd54dd8a09e5c858f19a665e4fa32b0 MATIC0.01070895
0xeb76043b038d1904ae7c828b64519584704297868814b53a16908cdf416229fcExecute Meta Tra...207086012021-10-28 15:55:575 hrs 24 mins ago0xdb239f642c19fe7e4d429c1d5eb50e53eeddccc8OUT 0xa102072a4c07f06ec3b4900fdc4c7b80b6c574290 MATIC0.00598572
0xab6d0d17449d48f093d8168c32c119f9079d7f8b57448ed93c21a37ed5871afaExecute Meta Tra...207082742021-10-28 15:44:395 hrs 35 mins ago0xdb239f642c19fe7e4d429c1d5eb50e53eeddccc8OUT 0x1fdc5e69729eecf8e933c904e86faf7a8886f6610 MATIC0.02746881
0x051b2787b375a66d6b1171f1c01f6fa938b37cd368c5ff104631ffae479c9981Execute Meta Tra...207080502021-10-28 15:36:415 hrs 43 mins ago0xdb239f642c19fe7e4d429c1d5eb50e53eeddccc8OUT 0x89aac1f5ccdd54dd8a09e5c858f19a665e4fa32b0 MATIC0.0428334
[ Download CSV Export 
Parent Txn Hash Block From To Value
Loading

Contract Name:
0 MATIC

Compiler Version
0

Optimization Enabled:
0 MATIC

Other Settings:
-NA-
Block Transaction Gas Used Reward
Age Block Fee Address BC Fee Address Voting Power Jailed Incoming
Block Uncle Number Difficulty Gas Used Reward
Loading
Loading
Make sure to use the "Vote Down" button for any spammy posts, and the "Vote Up" for interesting conversations.